Location: Burbank
(38.7788°N, 114.0429°W)
Time: 23:12:30
(UTC+00:00)

S-56A Canister/Altair - Pass Details

Date: 19 May 2026
Orbit: 633 x 2484 km, 38.9° (Epoch: 1 June)

Event Time Altitude Azimuth Distance (km) Brightness Sun altitude
Rises 04:02:22 0° 260° (W) 3,194 11.3 -13.5°
Reaches altitude 10° 04:04:55 10° 260° (W) 2,140 10.4 -13.9°
Maximum altitude 04:09:37 85° 172° (S) 639 7.0 -14.6°
Enters shadow 04:13:29 14° 84° (E) 1,789 9.0 -15.2°
Drops below altitude 10° 04:14:07 10° 84° (E) 2,045 - -15.3°
Sets 04:16:31 0° 84° (E) 3,038 - -15.6°
